This demonstration page uses our WeatherBlox Daily Observations layout. Learn more.

38.89511, -77.03637

Hourly Observations for March 4, 2015

Temp ( °F °C ) Dew Point ( °F °C ) Humidity (%) Winds ( mph kmh ) Pressure ( in mb ) Visibility ( mi km ) Precip ( " mm )
12:52 am 00:52 Cloudy 41 5 34 1 76 76 S 12 19 29.83 1010 10 16.09344 0 0
1:52 am 01:52 Cloudy 43 6 34 1 71 71 SSW 9 15 29.83 1010 10 16.09344 0 0
2:52 am 02:52 Cloudy 43 6 36 2 76 76 W 3 6 29.85 1011 10 16.09344 0 0
3:52 am 03:52 Cloudy with Light Rain 43 6 34 1 71 71 SSW 5 7 29.88 1012 6 9.656064 0.001 0.001
4:08 am 04:08 Cloudy with Rain 41 5 36 2 81 81 SSW 13 20 29.85 1011 3 4.828032 0 0
4:52 am 04:52 Cloudy with Light Rain 39 4 36 2 87 87 SSW 7 11 29.85 1011 7 11.265408 0.04 1.016
5:39 am 05:39 Cloudy with Light Rain 39 4 36 2 87 87 S 6 9 29.88 1012 6 9.656064 0.001 0.001
5:52 am 05:52 Cloudy with Mist and Fog 39 4 36 2 87 87 S 8 13 29.88 1012 6 9.656064 0.001 0.001
6:19 am 06:19 Cloudy with Mist and Fog 41 5 37 3 87 87 SSW 7 11 29.88 1012 6 9.656064 0 0
6:48 am 06:48 Cloudy with Light Rain 39 4 36 2 87 87 SSW 3 6 29.88 1012 5 8.04672 0 0
6:52 am 06:52 Cloudy with Light Rain 39 4 36 2 87 87 S 3 6 29.88 1012 6 9.656064 0.001 0.001
7:52 am 07:52 Cloudy with Mist and Fog 43 6 37 3 81 81 S 3 6 29.91 1013 5 8.04672 0.001 0.001
8:16 am 08:16 Cloudy with Haze 43 6 37 3 81 81 S 6 9 29.94 1014 5 8.04672 0 0
8:52 am 08:52 Cloudy with Light Rain 45 7 39 4 81 81 Calm 29.97 1015 6 9.656064 0.001 0.001
9:52 am 09:52 Cloudy with Light Rain 43 6 37 3 81 81 S 9 15 29.94 1014 4 6.437376 0.001 0.001
10:52 am 10:52 Cloudy with Haze 45 7 39 4 81 81 S 3 6 29.94 1014 6 9.656064 0.001 0.001
11:41 am 11:41 Cloudy with Mist and Fog 45 7 39 4 81 81 S 9 15 29.94 1014 4 6.437376 0.01 0.254
11:52 am 11:52 Cloudy with Haze 45 7 39 4 81 81 S 8 13 29.94 1014 4 6.437376 0.01 0.254
12:52 pm 12:52 Cloudy with Haze 46 8 41 5 82 82 S 7 11 29.91 1013 5 8.04672 0 0
1:35 pm 13:35 Cloudy with Haze 46 8 41 5 82 82 SSW 8 13 29.88 1012 4 6.437376 0 0
1:52 pm 13:52 Cloudy with Haze 48 9 43 6 82 82 SSW 6 9 29.88 1012 6 9.656064 0 0
2:41 pm 14:41 Cloudy with Haze 48 9 43 6 82 82 S 6 9 29.88 1012 4 6.437376 0 0
2:52 pm 14:52 Cloudy with Light Rain 48 9 43 6 82 82 S 7 11 29.88 1012 4 6.437376 0.001 0.001
3:52 pm 15:52 Cloudy with Haze 52 11 45 7 77 77 Calm 29.88 1012 5 8.04672 0.01 0.254
4:10 pm 16:10 Cloudy with Mist and Fog 46 8 43 6 87 87 Calm 29.88 1012 5 8.04672 0 0
4:14 pm 16:14 Cloudy with Haze 48 9 43 6 82 82 N 3 6 29.88 1012 5 8.04672 0 0
4:24 pm 16:24 Cloudy with Mist and Fog 46 8 43 6 87 87 NNE 3 6 29.88 1012 5 8.04672 0 0
4:52 pm 16:52 Cloudy with Light Rain 46 8 43 6 87 87 ENE 5 7 29.88 1012 5 8.04672 0.001 0.001
5:30 pm 17:30 Cloudy with Light Rain 48 9 45 7 87 87 Calm 29.91 1013 1.5 2.414016 0 0
5:52 pm 17:52 Cloudy with Light Rain 48 9 45 7 87 87 Calm 29.91 1013 1.75 2.816352 0.01 0.254
6:01 pm 18:01 Cloudy with Light Rain 46 8 45 7 93 93 Calm 29.88 1012 2.5 4.02336 0.001 0.001
6:16 pm 18:16 Cloudy with Light Rain 46 8 43 6 87 87 Calm 29.88 1012 1.5 2.414016 0.02 0.508
6:47 pm 18:47 Cloudy with Light Rain 48 9 45 7 87 87 Calm 29.88 1012 2 3.218688 0.02 0.508
6:52 pm 18:52 Cloudy with Light Rain 46 8 43 6 87 87 NE 3 6 29.88 1012 2 3.218688 0.02 0.508
6:55 pm 18:55 Cloudy with Light Rain 46 8 45 7 93 93 NE 3 6 29.88 1012 0.25 0.402336 0.001 0.001
7:01 pm 19:01 Cloudy with Fog 46 8 45 7 93 93 Calm 29.88 1012 0.25 0.402336 0.01 0.254
7:08 pm 19:08 Cloudy with Mist and Fog 46 8 43 6 87 87 NNE 3 6 29.88 1012 1 1.609344 0 0
7:12 pm 19:12 Mostly Cloudy with Mist and Fog 46 8 43 6 87 87 Calm 29.88 1012 1 1.609344 0 0
7:22 pm 19:22 Mostly Cloudy with Mist and Fog 46 8 43 6 87 87 NE 3 6 29.88 1012 0.75 1.207008 0 0
7:25 pm 19:25 Mostly Cloudy with Light Drizzle 46 8 43 6 87 87 Calm 29.91 1013 0.5 0.804672 0.01 0.254
7:52 pm 19:52 Cloudy with Light Rain 46 8 45 7 93 93 Calm 29.91 1013 0.5 0.804672 0.01 0.254
8:17 pm 20:17 Cloudy with Light Rain 45 7 41 5 87 87 N 3 6 29.91 1013 0.25 0.402336 0 0
8:39 pm 20:39 Cloudy with Light Rain 46 8 45 7 93 93 N 6 9 29.94 1014 1.25 2.01168 0.06 1.524
8:52 pm 20:52 Cloudy with Light Rain 46 8 43 6 87 87 NNW 13 20 29.94 1014 1.75 2.816352 0.08 2.032
8:58 pm 20:58 Cloudy with Rain 46 8 43 6 87 87 N 12 19 29.94 1014 2 3.218688 0 0
9:18 pm 21:18 Cloudy with Light Rain 45 7 43 6 93 93 NNE 8 13 29.91 1013 1.5 2.414016 0 0
9:33 pm 21:33 Cloudy with Light Rain 45 7 41 5 87 87 N 3 6 29.94 1014 2 3.218688 0.05 1.27
9:38 pm 21:38 Cloudy with Light Rain 45 7 41 5 87 87 N 3 6 29.94 1014 2 3.218688 0 0
9:52 pm 21:52 Cloudy with Light Rain 46 8 43 6 87 87 N 6 9 29.94 1014 2.5 4.02336 0 0
10:02 pm 22:02 Cloudy with Light Rain 46 8 43 6 87 87 N 7 11 29.94 1014 2 3.218688 0.01 0.254
10:07 pm 22:07 Cloudy with Light Rain 45 7 43 6 93 93 N 7 11 29.94 1014 1.75 2.816352 0 0
10:19 pm 22:19 Cloudy with Light Rain 46 8 43 6 87 87 N 8 13 29.94 1014 2 3.218688 0.04 1.016
10:23 pm 22:23 Cloudy with Light Rain 46 8 43 6 87 87 N 7 11 29.97 1015 3 4.828032 0.04 1.016
10:52 pm 22:52 Cloudy with Light Rain 46 8 43 6 87 87 N 12 19 29.97 1015 6 9.656064 0.06 1.524
11:08 pm 23:08 Cloudy with Light Rain 45 7 41 5 87 87 N 7 11 29.97 1015 3 4.828032 0 0
11:25 pm 23:25 Cloudy with Light Rain 45 7 41 5 87 87 N 7 11 29.97 1015 5 8.04672 0.03 0.762
11:52 pm 23:52 Cloudy with Light Rain 45 7 41 5 87 87 NNW 7 11 29.97 1015 5 8.04672 0.03 0.762

Powered by AerisWeather